This is the latest recevied weather packets stored in our database for station/object AF5AA. If no packets are shown the sender has not sent any weather packets the latest 10 day(s).
| Time | Temp. | Humidity | Pressure | Rain* | Wind** | Luminosity | Snow |
|---|---|---|---|---|---|---|---|
| 1777575085 | 16.67° C | 99% | 1013 hPa | 0 mm | - | 62 W/m² | - |
| 1777574781 | 16.67° C | 99% | 1013.2 hPa | 0 mm | - | 97 W/m² | - |
| 1777574479 | 16.67° C | 99% | 1013.2 hPa | 0 mm | - | 108 W/m² | - |
| 1777574175 | 16.67° C | 99% | 1013.2 hPa | 0 mm | - | 131 W/m² | - |
| 1777573870 | 17.22° C | 99% | 1013.5 hPa | 0 mm | - | 107 W/m² | - |
| 1777573565 | 17.22° C | 99% | 1014.2 hPa | 0 mm | - | 87 W/m² | - |
| 1777573261 | 16.67° C | 99% | 1014.4 hPa | 0 mm | - | 133 W/m² | - |
| 1777572958 | 16.67° C | 99% | 1014.5 hPa | 0 mm | - | 111 W/m² | - |
| 1777572654 | 16.11° C | 99% | 1014.5 hPa | 0 mm | - | 115 W/m² | - |
| 1777572354 | 16.11° C | 99% | 1014.5 hPa | 0 mm | - | 71 W/m² | - |
| 1777572050 | 16.11° C | 99% | 1014.7 hPa | 0 mm | - | 40 W/m² | - |
| 1777571750 | 16.11° C | 99% | 1015.1 hPa | 1.27 mm | - | 26 W/m² | - |
| 1777571448 | 16.11° C | 99% | 1015.5 hPa | 1.27 mm | - | 17 W/m² | - |
| 1777571144 | 16.67° C | 99% | 1015.2 hPa | 0 mm | - | 7 W/m² | - |
| 1777570840 | 16.67° C | 99% | 1014.6 hPa | 0 mm | - | 6 W/m² | - |
| 1777570536 | 16.67° C | 99% | 1014 hPa | 0 mm | - | 10 W/m² | - |
| 1777570233 | 16.11° C | 98% | 1013.7 hPa | 0 mm | - | 13 W/m² | - |
| 1777569928 | 16.67° C | 97% | 1013.2 hPa | 0 mm | - | 16 W/m² | - |
| 1777569624 | 16.67° C | 97% | 1013.7 hPa | 0 mm | - | 10 W/m² | - |
| 1777569321 | 16.67° C | 96% | 1013 hPa | 0 mm | - | 22 W/m² | - |
| 1777569017 | 16.67° C | 95% | 1013.6 hPa | 0 mm | - | 17 W/m² | - |
| 1777568714 | 16.67° C | 95% | 1013.6 hPa | 0 mm | - | 17 W/m² | - |
| 1777568411 | 16.67° C | 95% | 1013.5 hPa | 0 mm | - | 16 W/m² | - |
| 1777568108 | 16.67° C | 95% | 1013.4 hPa | 0 mm | - | 24 W/m² | - |
| 1777567804 | 16.67° C | 95% | 1013.3 hPa | 0 mm | - | 25 W/m² | - |
* Rain latest hour (hover to see other rain measurements)
** Current wind speed in m/s (hover to see current wind gust speed)